Victoria, TX

4:30 AM CST on December 13, 2019 (GMT -0600)
Victoria Regional

Weather History for KVCT - October, 2019

Change the Weather History Date:

Saturday, October 5, 2019

  Actual Average Record
Temperature  
Mean Temperature 82 °F 75 °F  
Max Temperature 95 °F 86 °F 101 °F (1925)
Min Temperature 68 °F 64 °F 49 °F (1975)
Degree Days  
Heating Degree Days 0 0  
Month to date heating degree days 0 0  
Since 1 July heating degree days 0 1  
Cooling Degree Days 16 10  
Month to date cooling degree days 87 53  
Year to date cooling degree days 3352 2851  
Growing Degree Days 32 (Base 50)    
Moisture  
Dew Point 70 °F    
Average Humidity 79    
Maximum Humidity 97    
Minimum Humidity 41    
Precipitation  
Precipitation 0.00 in 0.14 in 2.04 in (2001)
Month to date precipitation 0.04 0.71  
Year to date precipitation 19.40 31.74  
Snow  
Snow 0.00 in 0.00 in 0.00 in (2002)
Month to date snowfall 0.0 0.0  
Since 1 July snowfall 0.0 0.0  
Since 1 September snowfall 0.0 0.0  
Snow Depth 0.00 in    
Sea Level Pressure  
Sea Level Pressure 29.97 in    
Wind  
Wind Speed 3 mph ()    
Max Wind Speed 13 mph    
Max Gust Speed 16 mph    
Visibility 6.0 miles    
Events      
T = Trace of Precipitation, MM = Missing Value Source: Averaged Metar Reports

Daily Weather History Graph

Daily Weather History Graph

Search for Another Location

Airport or City:

Astronomy

Oct. 05, 2019 Rise Set
Actual Time 7:22 AM CDT 7:08 PM CDT
Civil Twilight 6:59 AM CDT 7:32 PM CDT
Nautical Twilight 6:31 AM CDT 7:59 PM CDT
Astronomical Twilight 6:04 AM CDT 8:27 PM CDT
Moon 2:24 PM CDT (10/5) 12:05 AM CDT (10/5)
Length of Visible Light 12h 33m
Length of Day
11h 46m
Waxing Crescent, 50% of the Moon is Illuminated
Oct 5
Waxing Crescent
Oct 13
Full
Oct 21
Last Quarter
Oct 27
New
Nov 4
First Quarter

Hourly Weather History & Observations

Time (CDT) Temp. Heat Index Dew Point Humidity Pressure Visibility Wind Dir Wind Speed Gust Speed Precip Events Conditions
12:09 AM 73.4 °F - 71.6 °F 94% 30.00 in 1.8 mi Calm Calm - N/A   Clear
12:19 AM 73.0 °F - 71.1 °F 93% 30.00 in 3.0 mi Calm Calm - N/A   Clear
12:34 AM 72.0 °F - 70.0 °F 93% 30.00 in 2.0 mi Calm Calm - N/A   Clear
12:37 AM 72.0 °F - 70.0 °F 93% 30.00 in 1.2 mi Calm Calm - N/A   Clear
12:47 AM 71.6 °F - 69.8 °F 94% 30.00 in 2.0 mi Calm Calm - N/A   Clear
12:51 AM 72.0 °F - 70.0 °F 93% 29.99 in 3.0 mi Calm Calm - N/A   Clear
1:51 AM 70.0 °F - 68.0 °F 93% 29.99 in 2.0 mi NNW 4.6 mph - N/A   Clear
2:41 AM 70.0 °F - 68.0 °F 93% 29.99 in 4.0 mi NNW 3.5 mph - N/A   Clear
2:51 AM 70.0 °F - 68.0 °F 93% 29.99 in 3.0 mi NNW 4.6 mph - N/A   Clear
3:51 AM 70.0 °F - 68.0 °F 93% 29.98 in 5.0 mi North 3.5 mph - N/A   Clear
4:51 AM 68.0 °F - 66.9 °F 96% 29.96 in 3.0 mi NNW 3.5 mph - N/A   Clear
5:51 AM 70.0 °F - 68.0 °F 93% 29.97 in 4.0 mi North 4.6 mph - N/A   Clear
6:51 AM 69.1 °F - 68.0 °F 96% 29.98 in 5.0 mi North 3.5 mph - N/A   Clear
7:51 AM 70.0 °F - 66.9 °F 90% 29.99 in 3.0 mi ENE 5.8 mph - N/A   Clear
8:10 AM 71.1 °F - 69.1 °F 93% 30.00 in 3.0 mi NE 4.6 mph - N/A   Scattered Clouds
8:18 AM 71.1 °F - 70.0 °F 96% 30.01 in 3.0 mi ENE 5.8 mph - N/A   Partly Cloudy
8:44 AM 73.0 °F - 71.1 °F 93% 30.01 in 3.0 mi NNE 5.8 mph - N/A   Partly Cloudy
8:51 AM 73.9 °F - 72.0 °F 93% 30.01 in 3.0 mi NE 4.6 mph - N/A   Partly Cloudy
9:51 AM 80.1 °F 85.1 °F 75.0 °F 85% 30.01 in 9.0 mi North 4.6 mph - N/A   Scattered Clouds
10:51 AM 84.0 °F 91.2 °F 73.9 °F 72% 30.01 in 10.0 mi Calm Calm - N/A   Partly Cloudy
11:51 AM 88.0 °F 92.9 °F 70.0 °F 55% 30.00 in 10.0 mi Calm Calm - N/A   Scattered Clouds
12:51 PM 91.0 °F 98.2 °F 72.0 °F 53% 29.98 in 10.0 mi NNW 6.9 mph - N/A   Mostly Cloudy
1:51 PM 91.9 °F 96.9 °F 69.1 °F 47% 29.96 in 10.0 mi SSE 3.5 mph - N/A   Scattered Clouds
2:51 PM 93.0 °F 97.4 °F 68.0 °F 44% 29.92 in 10.0 mi SSE 3.5 mph - N/A   Mostly Cloudy
3:51 PM 93.0 °F 96.4 °F 66.9 °F 42% 29.90 in 10.0 mi WSW 5.8 mph - N/A   Clear
4:51 PM 93.9 °F 97.5 °F 66.9 °F 41% 29.89 in 10.0 mi Calm Calm - N/A   Partly Cloudy
5:51 PM 91.9 °F 94.5 °F 66.0 °F 42% 29.88 in 10.0 mi South 5.8 mph - N/A   Clear
6:51 PM 87.1 °F 92.0 °F 70.0 °F 57% 29.89 in 10.0 mi South 12.7 mph - N/A   Partly Cloudy
7:51 PM 82.9 °F 87.5 °F 71.1 °F 67% 29.90 in 10.0 mi South 8.1 mph - N/A   Clear
8:51 PM 80.1 °F 83.6 °F 71.1 °F 74% 29.91 in 10.0 mi South 5.8 mph - N/A   Clear
9:51 PM 78.1 °F - 71.1 °F 79% 29.93 in 9.0 mi SSE 4.6 mph - N/A   Clear
10:51 PM 77.0 °F - 71.1 °F 82% 29.94 in 9.0 mi SSE 4.6 mph - N/A   Clear
11:51 PM 75.9 °F - 71.1 °F 85% 29.94 in 8.0 mi SSE 4.6 mph - N/A   Clear